Location: Aigremont
(47.7188°N, 3.8925°E)
Time: 15:24:00
(UTC+00:00)

CZ-4C R/B - Pass Details

Date: 18 February 2020
Orbit: 642 x 1360 km, 63.4° (Epoch: 28 March)

Event Time Altitude Azimuth Distance (km) Brightness Sun altitude
Exits shadow 05:47:20 10° 302° (WNW) 2,492 4.1 -10.6°
Maximum altitude 05:51:40 21° 350° (N) 2,000 4.0 -9.8°
Drops below altitude 10° 05:56:40 10° 38° (NE) 2,895 5.4 -9.0°
Sets 06:00:20 0° 53° (NE) 3,993 6.4 -8.4°
